GFSCGP_925_rhum_060.txt.gz
RH
26 30 31 26 24 25 27 28 32 28 27 37 37 31 37 42 50 50 62 73 75 70 57 64 63 56 62 63 65 68 75 74 73 74 71 73 70 64 52 49 56 58 58 59
36 40 26 27 30 34 35 37 34 24 23 36 29 31 37 46 42 43 44 43 42 49 44 44 50 62 68 73 71 75 76 74 72 68 64 65 73 70 52 60 60 59 57 54
41 36 28 30 36 36 37 40 29 28 23 25 24 30 31 34 39 42 38 41 44 48 55 57 62 90 90 91 81 82 77 74 72 68 66 70 73 69 63 62 60 60 57 57
36 31 30 33 32 33 43 30 26 24 26 25 24 41 36 32 45 46 48 51 55 55 55 76 89 99 98 97 89 86 76 75 73 68 72 72 70 62 60 59 58 59 58 56
34 36 34 31 32 29 38 27 26 27 37 35 34 36 32 32 38 40 44 51 54 54 57 87 96 98 100 95 86 81 80 78 72 71 82 76 61 53 57 59 59 60 60 58
26 25 28 30 29 28 25 27 44 49 47 49 37 38 37 35 28 32 40 44 54 56 69 82 88 96 96 88 83 82 84 82 74 81 82 67 53 58 57 61 62 63 51 43
26 28 22 26 26 27 29 42 58 57 66 56 38 44 37 31 31 31 38 48 54 63 83 87 92 94 99 93 86 86 86 81 78 77 71 60 54 56 59 56 47 40 45 46
38 37 27 22 26 28 40 38 59 49 62 48 40 47 36 33 32 34 42 58 65 74 78 83 85 87 87 83 81 80 78 57 56 54 55 55 49 47 45 44 46 46 46 53
41 40 44 30 30 26 36 47 52 56 51 53 43 35 36 31 34 36 49 62 71 72 80 79 76 73 71 69 71 72 56 58 54 53 50 46 44 43 45 50 50 60 66 51
36 47 43 39 30 28 29 38 52 63 40 40 39 38 49 37 40 50 52 65 68 63 68 68 68 64 58 50 51 51 51 53 54 53 52 48 45 45 47 51 53 49 44 39
43 39 38 40 37 32 34 34 36 42 54 54 63 45 35 40 42 50 54 58 62 58 59 62 61 59 53 49 49 49 51 55 54 52 50 47 44 50 59 54 48 41 37 36
39 51 56 42 34 35 32 34 39 61 37 56 63 47 26 37 38 47 48 53 58 50 51 54 58 60 60 56 54 56 57 58 53 50 46 47 57 59 57 40 37 35 36 37
43 48 60 52 39 32 37 28 30 47 57 46 68 52 27 27 36 38 49 54 56 57 49 50 56 59 60 62 61 59 59 52 47 47 50 55 59 53 34 36 35 37 38 40
39 45 44 61 43 32 32 30 28 37 69 48 58 38 31 28 29 35 35 47 57 55 48 53 58 57 65 60 59 56 53 50 53 51 47 49 35 35 37 37 37 37 38 39
37 39 35 34 31 32 31 30 29 33 38 47 39 45 31 28 28 30 31 40 56 53 55 66 71 72 64 61 58 53 51 55 49 46 37 33 33 32 31 30 28 29 32 37
42 39 35 37 40 37 35 30 34 33 29 32 32 34 29 23 26 26 28 31 46 54 62 67 71 69 70 74 72 60 54 44 34 28 28 29 28 28 26 34 46 43 43 46
51 57 66 56 47 43 61 40 35 31 32 31 34 29 27 32 31 28 29 26 51 60 63 66 67 66 70 67 64 53 41 28 27 27 28 28 30 34 45 53 45 44 48 56
63 67 74 78 64 69 46 32 32 32 31 29 39 40 38 40 46 51 48 42 53 56 60 62 60 59 55 54 50 36 29 28 28 29 32 36 44 55 49 44 45 49 52 52
57 77 85 73 77 57 40 26 21 26 31 35 44 39 45 48 46 52 56 59 63 64 58 53 49 47 45 41 33 32 31 32 37 37 46 54 51 45 44 48 52 52 55 55
61 72 77 97 72 69 48 30 22 28 48 36 40 40 38 46 74 68 60 55 49 44 42 43 44 42 37 36 32 35 41 41 38 44 59 55 50 46 50 54 52 54 57 62
84 92 82 97 81 66 46 37 26 37 44 43 55 50 53 71 72 59 47 44 43 47 51 51 49 48 41 37 36 37 45 50 54 50 48 48 48 50 50 52 53 54 56 55
63 84 97 95 88 67 47 30 39 47 50 64 66 68 74 71 56 50 44 52 53 56 55 51 49 43 41 43 54 64 65 57 49 45 44 47 49 50 52 54 55 56 59 65
66 60 77 75 75 53 51 44 49 53 60 57 65 67 68 57 49 47 62 61 61 61 57 51 50 53 57 55 48 46 45 42 41 46 48 47 48 50 52 56 58 59 63 68
51 64 73 68 56 66 68 67 63 63 71 67 64 63 66 51 50 68 68 67 66 66 64 56 53 56 54 49 46 44 44 42 44 46 45 44 46 48 52 56 60 65 68 69
62 56 61 84 77 73 71 68 73 63 62 62 60 58 50 54 74 76 79 76 71 65 57 58 57 53 49 45 42 40 39 40 42 43 43 43 45 49 52 53 56 62 65 67
54 57 68 75 69 71 78 77 65 64 65 66 68 73 70 70 76 73 75 74 73 67 57 57 58 50 44 42 45 51 52 52 55 58 57 54 55 56 57 58 60 62 64 64

GFSCGP_925_rhum_066.txt.gz
RH
30 34 36 30 32 31 32 35 37 34 29 32 38 37 68 67 74 89 94 95 90 82 71 76 75 77 83 76 78 77 81 82 77 85 90 90 85 80 79 74 69 57 50 50
34 35 29 30 31 32 34 36 40 36 28 34 43 43 37 67 72 73 89 94 87 80 76 73 74 77 77 74 74 71 74 75 76 79 84 80 71 67 63 67 59 54 55 54
37 31 32 31 33 36 35 37 40 39 31 33 38 36 41 50 61 59 71 77 79 75 75 70 78 83 75 70 70 70 71 72 78 83 79 75 75 67 62 60 59 59 59 59
35 32 35 36 36 38 40 35 37 38 32 37 27 40 38 46 58 58 60 77 78 76 68 66 72 82 77 70 69 71 75 80 85 82 79 77 75 73 60 55 57 60 60 59
30 40 38 38 35 32 37 30 34 32 36 37 36 38 33 48 57 56 55 66 69 72 69 67 66 72 78 74 70 71 75 88 89 88 84 83 79 73 62 59 63 64 64 66
29 30 35 34 28 30 30 34 40 47 48 48 37 41 41 46 45 44 47 50 58 58 63 60 57 66 79 79 76 78 80 88 89 92 92 86 80 80 69 65 68 67 68 63
30 31 27 28 28 30 34 39 52 53 60 52 41 47 44 30 29 36 46 47 49 53 68 70 84 89 92 95 88 89 93 98 92 94 92 89 83 73 68 64 67 69 68 65
39 33 30 27 27 32 39 38 56 43 53 46 43 50 36 30 34 40 38 44 48 57 67 75 79 91 96 97 93 94 90 98 95 95 93 90 86 78 65 61 66 68 66 60
41 36 35 37 32 29 42 45 39 59 58 65 51 39 25 28 38 45 58 56 59 60 72 83 89 92 96 99 90 97 100 99 92 92 90 87 87 93 72 64 68 64 56 62
33 33 38 37 34 37 31 44 49 61 50 48 44 41 37 28 33 43 60 70 76 69 73 87 95 93 92 92 90 99 99 97 88 90 89 85 86 84 68 67 59 59 69 77
36 34 32 38 41 38 44 43 47 50 58 53 63 44 38 33 34 40 47 58 79 88 89 88 91 93 94 98 98 99 99 92 88 80 82 86 75 66 62 58 65 68 70 86
39 42 42 38 34 33 37 42 46 60 47 63 64 57 28 30 35 39 45 48 73 87 92 91 91 94 98 99 100 98 95 88 79 73 72 67 62 59 65 65 67 80 64 59
43 43 46 39 36 39 41 41 44 53 61 61 71 57 29 34 34 37 40 48 61 80 90 92 92 90 87 89 92 91 84 75 68 66 61 58 60 62 64 75 82 65 53 45
39 51 42 43 39 39 44 41 46 48 74 55 62 41 33 30 32 35 34 43 59 73 81 88 90 88 80 81 82 84 83 73 66 62 58 60 60 65 67 64 50 43 41 41
40 41 43 38 35 33 33 31 44 44 43 49 42 49 37 33 32 31 30 33 60 73 74 81 90 92 91 85 82 81 78 72 67 66 68 74 79 65 47 43 41 34 32 37
46 44 37 40 42 43 41 41 42 41 39 43 42 45 37 34 30 30 36 36 43 67 72 70 86 88 91 87 83 80 77 76 72 74 82 82 56 45 36 32 39 46 47 43
49 60 59 49 51 45 59 50 44 42 41 41 49 42 29 29 42 61 73 62 47 57 72 80 90 88 87 87 85 87 83 75 71 79 62 46 34 33 45 52 49 42 42 41
61 58 65 72 64 59 39 40 38 45 42 37 38 36 36 46 73 71 71 80 84 86 92 91 88 89 84 81 82 82 79 75 61 46 36 32 40 53 52 44 48 45 42 48
59 72 80 72 73 50 40 41 42 40 39 37 42 50 58 64 64 69 60 60 69 75 74 77 81 80 76 73 72 69 57 47 36 36 40 51 59 52 59 54 46 46 49 50
65 70 70 88 74 71 53 42 28 25 45 40 49 59 60 49 42 50 59 61 61 57 57 57 57 56 54 50 51 42 39 39 49 54 57 63 60 55 49 47 48 49 51 54
88 90 77 95 81 73 54 34 28 42 48 44 51 59 55 42 52 67 65 63 57 55 54 52 51 51 47 39 35 41 46 49 54 62 59 54 50 45 45 46 48 51 52 55
75 87 88 87 83 69 46 41 38 44 53 54 52 57 71 73 72 71 65 61 54 51 48 46 47 49 40 42 48 55 56 62 57 49 46 43 43 45 45 48 47 48 50 51
66 64 74 69 72 56 52 39 40 51 58 63 64 70 67 71 70 69 66 60 55 52 56 62 61 56 54 54 54 53 56 50 49 49 52 53 53 54 58 62 63 66 66 70
55 59 64 59 55 61 59 60 57 60 62 71 72 64 61 68 69 70 64 61 63 64 64 58 56 60 63 56 57 61 54 53 52 59 62 60 56 52 49 46 48 57 65 78
66 64 74 73 76 70 70 73 68 72 76 79 67 62 65 69 70 66 69 70 68 67 62 59 63 68 80 68 69 66 62 57 53 51 50 47 44 44 46 52 61 78 86 91
71 70 73 68 54 55 58 78 74 76 78 71 66 72 70 66 71 69 72 70 70 68 58 66 68 73 87 74 66 64 60 52 47 45 44 48 55 60 72 81 86 86 83 79

GFSCGP_925_rhum_069.txt.gz
RH
31 32 35 30 30 26 29 32 34 31 26 29 32 37 54 63 73 74 70 68 67 79 62 67 71 75 77 80 81 74 77 85 77 75 87 100 100 100 96 89 84 80 73 61
32 36 28 27 30 32 34 34 32 30 28 33 34 32 40 56 65 67 65 71 64 62 69 70 76 79 76 71 76 70 76 81 81 77 79 91 96 97 88 87 81 72 57 48
37 30 32 33 36 36 35 36 36 32 32 32 35 30 37 45 54 61 62 61 64 64 62 66 72 80 85 83 80 81 86 84 85 83 81 88 90 87 85 77 64 57 53 54
34 32 34 37 36 35 39 33 33 37 33 30 28 30 28 35 49 57 60 64 65 68 66 59 65 72 80 80 84 86 85 81 85 84 85 84 86 85 81 74 62 60 62 60
30 40 39 38 37 34 34 34 35 34 34 34 35 30 24 39 41 43 49 55 58 58 62 62 61 64 76 82 78 82 82 78 82 82 86 84 84 80 69 64 63 65 69 67
30 31 34 32 32 32 34 36 36 40 41 43 37 33 28 26 31 35 36 44 51 56 58 58 60 64 73 82 84 86 88 93 89 86 89 89 80 80 76 66 70 71 68 65
32 32 29 30 31 32 33 36 41 45 47 42 40 41 31 30 27 28 30 41 44 51 59 60 59 66 74 88 92 89 95 98 95 92 91 98 86 84 81 69 73 74 71 67
35 34 30 30 28 30 36 35 47 39 44 37 42 41 25 29 28 33 38 38 42 47 52 55 55 62 75 85 90 90 89 92 98 97 100 99 89 86 88 75 69 65 68 69
42 33 33 35 33 30 41 40 37 53 56 57 43 33 22 27 31 35 37 50 42 45 48 49 54 64 72 83 90 80 90 92 100 100 100 99 92 89 84 75 69 73 72 67
35 34 39 39 34 38 35 39 46 50 50 47 36 36 28 24 24 33 37 42 50 54 52 51 56 67 75 80 83 87 91 92 99 100 100 96 93 95 90 81 80 78 70 62
35 35 34 38 40 37 44 43 44 41 46 46 47 34 31 27 27 32 34 40 45 55 57 59 66 70 76 82 83 92 96 100 100 100 99 98 98 98 98 91 82 69 64 72
37 44 45 37 33 33 34 37 41 54 46 54 51 42 26 29 30 32 35 39 41 54 56 64 72 81 83 85 89 98 100 100 99 99 100 99 97 93 93 86 69 67 67 90
42 42 40 33 34 39 40 39 42 48 55 53 61 42 28 28 27 28 32 34 42 57 61 69 76 81 86 90 98 99 99 97 95 90 90 90 90 83 76 72 77 77 86 73
37 46 40 36 31 37 48 45 44 44 59 51 47 37 30 26 27 26 29 30 32 50 60 66 73 76 83 89 94 94 94 90 86 83 86 87 86 74 80 91 92 69 55 48
40 41 44 37 32 36 38 38 46 42 42 47 37 41 30 27 27 27 28 30 31 35 56 66 71 78 83 89 93 94 93 91 89 88 88 87 79 80 95 78 51 53 55 42
47 43 48 42 46 40 40 36 41 43 39 37 38 39 31 29 30 29 36 44 36 36 43 61 75 80 83 88 89 92 92 91 86 88 79 82 94 87 58 50 50 51 45 46
51 58 58 49 49 46 58 49 42 40 39 38 42 32 33 30 31 42 52 58 63 62 64 68 77 80 84 86 87 90 90 91 90 84 93 86 52 40 44 55 52 47 64 67
60 58 63 68 62 69 38 40 36 40 39 38 37 36 32 32 56 58 58 68 77 80 79 80 80 85 87 88 91 91 82 80 82 79 59 39 41 52 52 56 70 68 49 48
54 65 72 76 62 48 37 41 42 43 28 36 36 34 43 57 58 57 55 60 69 75 76 80 82 82 83 81 78 71 64 60 53 41 40 55 58 56 69 68 56 48 49 49
62 64 68 77 67 63 46 36 36 30 43 31 35 45 57 58 51 41 56 58 59 62 65 65 65 66 68 67 62 55 47 45 46 49 60 62 62 62 56 51 47 46 48 49
79 82 68 79 77 63 47 36 33 50 39 32 41 48 56 43 46 55 58 56 56 56 57 58 56 56 54 51 48 51 57 61 59 63 59 57 52 51 53 49 52 54 63 63
71 77 84 80 82 62 47 35 42 43 45 41 49 54 60 63 66 63 57 55 52 52 52 51 50 49 48 50 52 56 60 62 57 56 56 52 52 52 53 55 59 65 74 79
73 61 70 61 62 52 45 40 40 44 44 54 50 56 60 66 63 58 56 51 48 49 52 54 56 62 63 60 57 56 61 56 51 52 57 58 57 54 51 56 58 58 56 64
62 62 62 58 53 55 56 52 54 51 53 60 59 57 56 59 60 57 51 51 55 56 56 57 58 64 72 74 71 73 61 56 54 56 57 53 49 45 52 57 60 67 74 77
62 61 67 66 58 68 60 67 57 61 70 66 61 57 57 60 58 52 52 54 57 58 56 57 66 75 78 76 75 66 55 51 50 53 56 58 63 68 70 72 78 83 83 87
63 63 67 65 52 47 36 52 66 67 72 62 62 64 59 56 56 53 56 61 60 59 62 71 79 75 71 74 75 65 48 38 46 53 59 74 75 79 81 82 81 89 86 85

GFSCGP_925_rhum_072.txt.gz
RH
23 25 26 18 17 17 19 21 22 18 19 21 20 20 23 40 44 40 42 41 49 45 47 54 59 59 59 61 61 70 79 89 92 86 71 74 92 100 99 99 100 98 80 78
26 28 20 19 20 22 21 23 23 20 21 25 20 20 18 34 42 39 39 38 37 52 46 47 52 59 61 62 66 70 77 88 87 68 63 73 84 99 100 90 98 91 84 80
22 21 21 22 24 24 23 25 25 23 23 23 24 21 22 24 34 38 38 35 36 36 49 47 49 53 57 57 63 65 68 72 79 70 64 76 84 93 93 90 93 87 73 66
21 18 24 25 23 24 27 21 23 24 27 23 23 21 17 20 28 36 39 40 38 38 34 42 45 48 55 56 55 58 59 67 76 79 72 76 71 75 80 85 85 78 61 67
22 23 26 26 24 24 25 23 25 26 26 25 23 19 16 20 21 20 29 36 38 38 37 34 40 44 48 53 59 65 66 73 79 85 81 79 73 77 90 87 84 80 74 70
18 22 24 21 23 24 25 28 28 29 26 30 23 23 16 16 17 17 18 22 32 36 36 38 37 40 45 54 66 73 73 77 80 87 88 84 79 90 92 87 92 76 70 72
22 22 20 23 25 26 27 29 34 39 35 31 28 27 19 14 16 19 18 19 22 28 35 36 37 42 43 54 69 75 74 71 76 86 88 91 90 92 88 88 82 68 67 69
26 29 22 20 21 21 25 26 31 36 35 28 29 25 18 17 18 17 22 24 24 25 28 34 35 40 44 53 67 70 70 68 74 85 93 96 90 88 87 87 77 69 67 66
25 22 19 22 21 20 31 31 25 34 42 36 22 20 14 14 15 19 21 25 29 26 27 30 34 39 46 55 63 65 62 64 73 86 92 93 94 96 93 90 84 75 69 67
21 24 22 28 25 28 26 23 34 32 40 37 23 23 19 16 16 19 16 16 27 30 29 30 31 37 44 51 57 64 58 59 70 82 90 96 96 95 98 91 82 77 75 74
18 22 34 32 31 24 33 31 28 27 30 35 34 24 15 15 15 18 17 21 22 30 32 32 32 36 44 50 56 61 59 56 65 81 89 95 94 100 100 94 89 84 79 82
19 23 28 26 23 23 22 24 27 32 32 34 38 30 15 16 18 19 19 19 22 27 32 33 36 40 45 52 57 57 59 62 67 77 87 98 99 100 100 98 90 86 89 76
23 27 32 28 27 30 29 26 26 28 34 31 45 31 19 19 20 18 19 18 21 25 29 38 42 46 49 51 57 57 67 73 78 87 99 99 98 97 98 98 98 93 90 94
29 23 27 30 21 17 26 22 23 25 35 28 25 23 17 17 18 16 16 19 21 22 24 31 40 46 54 58 62 68 74 79 83 90 96 100 100 100 99 95 94 93 96 80
26 26 24 20 17 16 18 17 20 26 23 26 24 20 16 18 17 16 17 21 21 19 22 28 36 44 55 65 72 74 83 86 90 91 92 94 100 86 81 94 96 92 64 59
29 27 27 28 22 23 23 21 20 24 22 23 24 21 15 15 18 20 20 22 23 23 24 26 37 49 61 70 76 82 87 86 86 85 90 97 96 97 99 95 76 60 57 60
39 31 36 35 31 33 51 34 24 24 25 25 26 19 16 18 20 21 22 30 33 39 43 42 47 56 65 72 78 86 88 87 87 88 94 97 93 82 71 59 52 51 58 60
43 40 39 43 65 77 26 25 21 23 22 21 22 21 19 18 22 32 37 39 51 54 55 58 59 65 69 73 77 81 81 81 83 80 77 68 59 53 58 56 60 64 68 62
40 43 55 82 48 28 30 31 29 30 26 18 19 18 16 22 33 35 42 48 55 60 59 60 64 69 72 75 73 71 75 74 70 61 54 56 51 58 62 70 75 61 55 52
46 48 50 63 75 76 28 21 23 24 35 18 18 21 23 36 39 24 45 51 54 54 56 59 64 66 68 67 63 63 63 58 52 50 56 56 59 64 65 59 54 50 48 48
71 67 74 60 80 38 31 31 25 38 34 22 20 22 31 36 31 42 49 51 50 52 54 58 59 60 62 60 55 50 49 49 56 62 62 60 56 54 52 52 52 51 52 59
60 68 84 62 98 77 34 31 32 25 33 25 29 30 36 41 49 52 49 50 50 50 52 52 52 53 52 51 50 50 53 58 59 55 55 55 55 51 55 56 57 55 52 52
58 49 48 48 41 35 31 24 25 28 23 31 29 33 39 48 50 48 50 50 48 48 48 48 48 49 49 50 52 51 50 50 52 56 58 57 55 52 48 46 41 40 40 49
45 50 54 49 29 34 36 29 38 30 32 32 34 35 43 44 45 47 46 44 44 46 47 49 50 50 50 49 50 52 55 58 56 53 53 51 47 41 40 35 39 47 56 59
34 40 43 38 33 43 42 42 35 35 40 45 43 39 40 41 44 43 43 44 44 45 46 47 51 53 55 56 57 57 56 52 51 47 43 42 46 48 48 50 59 62 67 76
41 40 51 51 32 39 26 36 42 42 43 43 44 44 40 40 43 41 43 44 46 46 48 52 54 55 56 54 52 50 45 42 38 38 44 56 53 56 55 53 61 72 65 79

GFSCGP_925_rhum_075.txt.gz
RH
20 22 22 17 16 14 15 16 17 15 15 17 16 16 15 25 28 32 29 39 42 42 52 58 60 57 49 56 58 57 63 72 80 86 68 61 59 87 94 92 91 92 81 80
20 24 16 15 14 15 17 18 18 16 14 18 17 17 15 20 24 29 33 30 35 36 42 50 57 57 46 51 49 53 58 75 77 62 56 51 56 83 88 82 91 92 88 81
21 17 15 18 17 19 19 20 21 21 17 17 17 18 15 16 22 25 29 27 31 32 39 40 45 48 50 50 51 53 61 71 75 54 48 51 59 73 88 84 87 92 86 78
18 14 18 19 19 19 23 17 19 20 21 34 17 26 24 14 20 24 28 28 27 31 32 36 40 47 50 50 53 55 56 66 72 72 51 52 70 71 74 77 86 92 88 83
18 16 19 21 20 17 21 19 20 20 22 20 17 15 16 12 15 17 22 27 26 27 30 34 36 39 45 48 50 54 54 51 55 68 70 55 56 56 67 76 85 87 81 77
15 12 15 17 16 18 18 22 22 22 23 31 19 18 18 13 11 14 13 20 24 25 26 26 32 34 37 44 51 53 51 49 52 73 73 65 62 58 73 86 89 92 91 77
18 17 16 17 22 19 21 25 35 38 32 34 23 20 14 16 11 13 13 14 17 22 26 26 24 30 33 37 46 51 53 52 54 69 77 76 70 67 81 85 88 91 82 68
23 24 18 18 20 23 22 22 32 46 39 29 24 21 15 12 12 11 12 13 14 17 22 26 27 27 29 35 44 52 54 58 56 63 74 78 77 79 83 84 83 88 79 70
21 19 14 15 16 17 20 25 18 29 25 31 22 16 13 11 11 11 12 15 17 20 18 20 24 28 30 34 39 50 54 55 56 60 70 78 84 85 83 78 85 85 76 68
16 21 14 16 16 16 21 20 29 26 37 48 22 19 16 14 12 14 13 13 19 21 20 20 20 25 30 35 39 53 55 51 52 57 70 83 85 85 84 86 91 85 77 73
15 19 19 18 23 21 23 25 23 21 29 38 35 21 18 13 12 13 13 13 14 17 21 22 22 24 28 35 41 51 53 46 46 55 68 80 89 90 93 96 98 96 89 72
17 20 24 22 17 14 15 21 21 30 28 26 28 27 14 13 13 14 13 13 13 15 18 21 23 25 27 34 39 46 52 47 45 54 67 90 94 95 100 100 98 91 87 86
18 22 29 24 19 20 22 20 19 21 23 29 52 35 12 13 14 14 14 13 12 15 16 21 24 27 30 35 40 45 50 49 46 60 87 100 100 100 98 95 89 88 88 92
28 21 25 30 22 19 24 19 18 20 38 32 27 20 14 12 15 15 14 13 13 12 15 19 25 28 34 37 43 46 50 53 62 93 96 100 100 100 100 99 100 94 91 93
24 27 21 18 15 14 15 17 17 19 21 28 22 18 13 12 12 12 13 13 14 13 13 16 20 28 36 43 48 49 58 69 77 88 97 100 100 98 99 94 92 89 94 98
24 31 24 22 18 16 16 14 15 14 14 16 16 16 12 12 11 12 13 14 16 16 16 17 19 25 38 49 56 62 73 76 83 94 99 100 100 100 100 100 100 99 86 65
30 33 30 36 21 21 34 20 17 16 14 17 22 17 13 13 13 14 13 13 19 22 27 28 27 33 47 56 73 78 83 88 88 93 100 100 100 100 100 96 78 65 64 55
40 36 36 51 63 60 25 18 16 18 15 15 16 15 14 13 12 14 20 21 25 34 37 39 41 47 54 68 78 86 87 89 92 93 92 93 92 83 69 61 56 58 60 63
28 44 49 68 51 32 21 24 23 21 20 15 15 15 14 13 18 20 24 28 33 41 43 46 50 55 62 76 84 85 86 86 85 80 73 67 62 58 58 59 62 71 65 58
26 41 58 63 59 60 29 20 18 16 32 16 15 16 16 15 30 17 31 38 43 43 47 51 56 59 64 66 70 73 72 67 61 58 56 56 56 54 59 66 63 56 52 44
69 65 76 64 70 35 19 18 17 37 33 16 15 16 17 19 23 34 37 40 40 42 46 51 53 56 57 58 61 60 58 53 52 51 50 54 58 60 57 53 50 45 43 46
69 66 83 65 90 78 27 28 30 26 21 20 20 18 21 25 40 42 40 42 42 42 48 48 50 52 53 52 52 50 49 52 54 55 54 52 51 48 50 47 48 48 47 54
48 46 52 43 43 29 28 23 27 20 23 22 22 20 24 40 41 40 42 43 42 42 43 46 46 48 48 48 46 46 51 54 52 51 52 52 51 46 43 42 42 39 34 43
22 20 38 36 28 28 26 28 25 24 25 23 26 24 28 39 36 39 40 40 40 40 41 43 46 48 49 50 50 49 47 48 49 51 51 47 42 38 33 29 34 40 49 53
25 25 34 31 25 24 30 30 30 26 28 27 27 26 30 33 36 36 37 38 37 40 41 42 44 46 45 45 47 49 51 50 49 46 41 40 38 40 40 43 54 55 73 72
23 26 39 45 29 33 28 29 28 32 31 32 32 31 30 31 34 34 34 36 38 41 43 46 48 48 48 49 49 48 46 43 40 37 40 49 49 48 43 42 69 58 54 50

GFSCGP_925_rhum_078.txt.gz
RH
20 25 25 20 18 17 15 17 16 15 15 18 18 13 15 22 22 30 38 38 48 60 73 81 84 81 91 87 89 80 80 74 76 89 86 74 67 69 57 50 66 74 87 84
22 26 18 16 15 16 15 16 17 15 13 17 16 15 15 21 22 30 37 39 43 56 56 66 65 70 79 85 86 85 84 78 84 87 75 65 64 68 61 70 74 75 84 83
25 19 16 16 17 18 17 19 20 20 16 17 18 18 16 18 20 29 28 37 38 45 56 55 55 62 64 72 73 75 82 78 81 74 70 56 59 68 79 77 81 86 80 76
17 15 16 18 20 17 22 15 17 18 20 25 29 33 19 18 23 23 31 29 35 38 44 50 53 57 52 56 60 57 56 70 77 74 58 52 56 76 82 83 87 84 90 83
19 16 17 18 18 16 20 16 21 20 22 22 27 30 15 17 22 20 26 31 32 33 39 43 46 52 52 53 53 53 52 61 70 71 64 48 59 65 71 78 85 86 87 85
15 12 14 15 15 16 15 19 22 21 24 34 22 23 27 26 19 14 21 26 28 32 33 36 39 43 47 51 55 55 56 63 66 70 63 58 63 64 73 81 89 88 90 87
16 15 12 12 17 16 18 24 37 52 46 40 23 26 22 23 16 12 13 19 27 28 33 38 36 40 45 49 53 57 58 56 59 69 71 66 63 58 67 82 89 88 91 90
24 25 15 14 19 22 22 24 38 54 86 54 40 29 15 14 12 12 11 12 18 24 29 31 37 36 38 44 52 54 55 56 51 72 74 66 70 65 72 81 89 87 90 88
23 21 13 14 16 18 23 28 21 31 31 52 39 35 19 12 11 10 11 12 16 18 23 27 27 34 36 37 47 54 54 54 51 59 77 75 69 77 76 87 86 86 90 85
20 26 16 14 15 16 19 19 32 27 47 46 24 22 44 25 15 13 13 15 19 22 22 21 26 30 33 36 39 48 52 51 53 54 63 77 74 79 82 86 83 86 88 85
19 24 21 14 18 20 20 23 29 25 28 44 51 29 34 24 18 14 13 15 15 15 23 23 23 22 31 33 37 48 51 53 53 55 61 70 80 84 81 86 85 88 88 87
19 24 29 21 16 14 16 22 24 37 31 36 51 39 16 16 15 14 13 13 13 16 16 20 23 23 24 34 38 43 51 54 53 52 57 75 81 84 86 93 92 93 90 90
23 27 36 27 20 18 21 18 19 22 25 34 53 36 17 14 13 14 15 15 15 16 16 20 24 26 26 27 38 43 52 55 53 48 62 86 93 89 99 98 97 99 94 87
38 26 28 36 28 21 23 18 17 24 42 37 35 26 17 15 15 15 16 21 20 15 14 16 24 27 28 30 34 39 51 54 58 65 91 98 99 99 100 100 100 95 90 87
33 38 27 21 18 17 19 20 20 20 20 27 25 22 18 15 12 14 16 19 16 14 14 14 17 28 32 34 39 42 68 79 87 93 99 100 100 100 100 99 97 93 89 82
32 36 30 32 20 20 21 17 17 18 17 16 17 18 12 11 11 16 13 12 13 15 15 18 17 18 37 43 47 76 85 93 98 100 100 100 100 100 100 100 100 94 88 92
53 38 38 46 27 23 33 23 18 15 15 16 20 18 14 15 14 14 14 15 15 14 20 24 24 25 48 73 79 85 90 92 96 100 100 100 100 100 100 100 99 97 96 85
58 52 44 55 59 55 26 18 17 19 17 17 16 14 14 14 13 12 15 18 18 25 29 31 33 52 73 79 86 87 89 95 99 100 99 100 100 100 99 96 94 84 68 58
60 58 89 68 56 36 25 22 22 24 25 18 17 15 14 13 18 17 19 24 23 34 36 39 44 64 73 81 86 90 94 96 97 98 99 98 95 90 84 68 64 61 61 64
54 59 62 79 69 70 39 23 20 22 36 19 17 20 20 18 32 25 31 32 41 41 42 47 53 76 81 84 86 87 89 88 88 89 87 83 70 62 59 59 61 70 66 58
75 81 72 68 78 50 26 22 24 40 41 23 20 19 20 21 31 35 37 39 39 42 45 51 56 63 76 81 80 80 79 75 72 64 61 60 56 55 62 65 61 54 46 46
86 90 84 74 94 74 28 30 33 31 33 26 24 22 24 40 43 42 39 41 40 42 48 51 55 55 60 63 66 64 60 56 54 55 55 55 58 57 55 51 46 44 48 62
66 58 70 51 54 41 38 31 32 31 32 31 27 24 24 47 43 41 42 41 41 42 46 47 50 54 55 57 56 52 49 51 53 56 54 52 49 49 49 46 49 44 39 45
22 34 51 53 37 40 51 58 35 31 34 26 25 28 29 43 41 42 39 40 40 42 43 44 48 48 48 47 47 51 53 54 53 52 53 50 44 38 35 36 39 42 50 54
29 26 31 34 30 29 27 42 36 32 30 30 27 28 30 40 40 38 38 38 39 40 42 44 47 49 49 50 50 51 50 50 51 52 46 42 39 39 42 49 55 59 62 60
25 26 38 50 33 40 35 31 31 37 32 28 33 32 32 34 36 36 37 38 38 41 42 45 48 47 45 47 49 50 50 49 47 41 51 52 48 44 47 54 53 53 48 54

GFSCGP_925_rhum_081.txt.gz
RH
29 34 39 34 30 26 26 26 34 34 25 29 27 35 56 52 52 68 81 94 95 86 84 91 92 98 100 100 99 96 87 71 69 74 66 55 51 60 46 40 49 51 55 66
32 36 28 25 23 23 22 24 24 20 19 21 24 22 28 38 48 55 60 67 77 95 86 88 92 92 96 98 96 98 84 75 65 60 59 61 50 58 59 57 61 60 65 69
35 30 23 24 24 24 23 22 24 24 22 21 24 30 23 26 42 42 45 57 69 87 91 86 87 93 92 93 89 89 89 84 78 71 72 80 79 73 70 66 66 59 69 72
27 23 24 24 25 21 25 21 20 25 25 35 26 44 28 30 40 46 43 52 66 70 74 76 75 88 91 89 85 75 75 68 62 65 84 86 74 80 81 73 61 68 75 72
25 24 25 25 22 20 25 22 24 26 31 33 31 40 34 27 35 43 49 47 52 62 64 65 70 75 81 76 80 75 80 83 76 77 80 85 67 71 70 71 70 79 76 76
21 18 18 19 18 19 18 22 26 28 33 48 34 37 40 32 30 30 39 48 46 56 60 58 57 63 69 68 75 77 76 81 82 82 79 79 64 66 72 78 82 86 88 83
26 23 18 15 21 20 22 27 53 66 66 64 51 49 34 25 22 24 38 38 44 44 56 59 59 58 58 61 65 67 63 62 77 75 69 74 61 55 68 76 84 90 90 86
36 38 22 16 18 24 25 30 62 64 85 82 66 60 35 23 19 17 18 31 36 41 46 52 55 54 57 56 59 59 58 58 66 69 68 64 67 60 61 69 77 84 83 81
34 30 18 16 18 22 29 36 30 55 64 72 63 44 27 21 19 16 14 15 35 38 40 45 46 48 52 55 59 58 56 60 63 70 72 71 64 65 70 73 77 83 80 80
29 36 21 17 17 21 23 24 42 46 74 82 45 47 41 27 23 18 17 26 29 31 38 40 41 44 47 50 53 60 62 61 59 57 66 78 74 72 66 71 80 83 85 81
23 32 31 24 22 25 29 30 33 34 48 59 60 50 36 29 23 19 18 20 25 29 26 34 39 39 42 47 52 55 60 58 60 59 65 78 80 74 73 76 87 88 86 91
28 36 42 33 22 18 21 27 31 63 49 55 62 54 27 24 24 23 20 20 20 20 31 28 27 36 40 47 48 51 62 62 61 62 66 78 79 82 75 84 89 90 92 92
30 41 50 38 27 22 24 25 24 32 44 53 79 62 24 25 21 17 16 16 18 21 23 29 30 29 44 47 48 48 60 64 61 57 57 66 82 85 97 91 96 95 93 92
40 40 40 49 37 30 31 24 24 31 55 49 54 39 29 26 21 19 19 23 20 23 20 27 34 34 31 50 52 51 61 61 62 60 63 80 91 90 96 91 94 97 98 95
40 52 39 34 26 26 27 26 25 27 33 39 38 36 29 24 19 18 23 20 22 22 21 20 35 39 41 43 58 55 61 61 62 72 89 99 96 99 100 100 98 99 97 95
51 50 46 44 35 28 27 26 25 23 24 24 25 29 21 20 16 18 18 24 24 22 23 23 26 37 48 70 90 91 89 83 84 100 100 100 100 100 100 100 100 100 100 96
60 70 53 60 40 39 49 31 26 27 23 25 29 24 19 17 15 15 16 18 20 22 31 30 42 66 80 89 95 100 100 100 100 100 100 100 100 100 100 99 100 100 99 92
70 73 74 80 61 69 35 23 22 25 24 19 20 19 18 17 15 21 23 23 29 36 38 46 83 87 92 94 98 100 100 100 99 99 98 99 99 99 100 100 100 100 97 91
63 74 88 96 72 56 43 25 26 26 30 20 20 21 19 18 18 34 30 32 34 42 47 72 84 89 92 95 96 96 99 100 100 100 100 100 100 100 99 100 99 95 84 69
63 70 86 95 96 89 45 35 20 23 44 25 21 23 26 24 38 37 37 53 56 56 65 84 85 89 89 92 92 96 99 99 99 100 100 99 99 97 94 93 82 69 60 62
89 90 94 96 99 83 38 31 25 43 50 28 24 23 20 34 42 42 53 54 55 59 68 82 84 90 90 88 89 92 92 92 92 92 93 91 83 76 69 68 62 65 68 62
84 88 97 93 96 95 37 29 35 40 36 29 29 28 38 50 54 55 53 55 56 61 65 74 83 89 85 84 84 85 82 84 83 78 68 64 63 65 63 67 61 53 52 56
88 79 85 71 73 57 49 49 55 52 45 33 30 33 52 59 54 54 56 56 57 63 61 61 73 83 80 78 76 75 66 64 61 60 61 62 60 61 55 46 48 57 60 62
50 50 56 60 46 37 48 54 42 43 46 39 33 37 50 51 56 54 56 56 57 59 58 60 62 67 66 62 60 55 55 56 58 57 52 50 48 45 48 44 43 46 54 58
45 48 52 57 47 39 38 42 33 36 36 42 30 29 34 52 54 53 54 54 56 55 56 56 60 60 60 57 56 55 56 55 56 51 45 43 40 41 47 51 55 54 60 57
37 42 61 68 45 44 40 40 42 37 39 42 43 34 34 50 53 50 54 55 56 58 58 57 57 55 56 55 57 55 55 53 52 57 51 47 51 51 46 46 51 47 44 48

GFSCGP_925_rhum_084.txt.gz
RH
30 38 40 36 36 32 33 35 36 30 27 34 37 38 44 56 72 94 99 90 80 81 87 96 100 100 100 100 100 100 89 90 84 84 75 83 83 65 56 56 44 64 64 66
35 42 31 30 32 33 33 36 34 25 21 29 27 30 36 59 68 80 94 95 85 78 84 92 98 99 100 99 99 97 99 95 89 82 76 73 62 54 48 46 54 66 59 56
31 34 27 30 32 34 34 34 32 25 22 22 28 31 34 44 53 63 73 84 90 86 85 93 92 98 99 99 98 94 96 87 73 70 69 62 57 56 58 58 56 52 50 52
26 22 30 33 33 30 38 26 24 26 30 36 27 46 33 46 59 60 62 72 88 88 83 88 87 90 100 99 98 98 90 82 71 68 67 64 64 69 74 60 46 42 42 52
28 26 30 34 31 27 32 26 25 27 31 36 35 44 37 45 61 59 58 66 79 89 88 88 84 85 92 95 93 92 85 78 75 70 65 65 75 74 61 61 54 49 52 61
22 20 24 26 25 25 23 23 30 37 39 51 51 50 47 39 40 53 48 58 70 78 81 80 79 84 93 89 90 92 88 86 80 77 70 72 78 82 81 81 81 76 69 64
28 23 20 20 24 23 24 31 48 57 58 62 62 57 45 32 28 41 48 47 64 68 71 76 79 83 88 87 86 86 80 79 77 76 78 80 88 87 81 80 81 84 77 79
40 42 26 23 26 26 30 32 60 58 76 69 60 54 43 28 27 25 36 44 48 64 65 68 70 75 77 73 73 74 74 77 81 84 84 86 85 85 81 78 78 72 72 72
45 38 23 21 20 22 29 38 33 60 63 74 64 50 34 27 22 17 34 39 52 50 63 63 62 66 70 71 64 67 70 75 77 83 87 91 91 88 82 79 72 66 65 74
36 42 26 21 20 21 27 30 46 55 77 74 62 57 47 29 21 22 22 44 46 48 52 59 59 60 62 66 69 65 69 70 69 71 83 86 86 80 79 76 73 76 73 81
25 39 38 26 30 27 32 37 39 42 60 74 67 52 38 30 24 22 24 33 40 44 47 49 54 56 57 60 64 69 71 67 63 61 69 78 81 78 77 75 74 78 82 93
29 34 42 36 26 22 26 29 37 61 55 59 64 53 28 28 26 26 23 22 30 39 41 42 45 47 51 56 64 64 67 66 64 64 64 73 81 82 84 87 92 96 100 100
36 39 57 38 33 29 31 28 30 44 54 56 77 57 32 32 28 26 25 23 24 27 38 40 43 45 45 49 56 61 63 71 69 67 68 69 76 83 89 99 100 90 85 99
44 49 35 43 37 34 34 31 27 34 51 48 59 41 33 30 29 27 26 22 25 27 26 34 40 45 42 44 51 58 59 64 68 68 68 72 78 85 94 100 100 96 94 99
53 53 45 38 33 33 32 33 31 30 36 41 37 40 36 32 30 26 23 26 25 25 25 26 37 46 54 52 53 55 57 66 70 72 74 74 85 98 99 100 95 94 100 100
62 56 43 50 40 34 45 36 30 31 30 32 35 36 28 22 28 21 24 26 27 24 22 25 32 42 52 60 61 65 68 72 73 77 81 86 99 100 100 100 100 100 100 100
91 73 57 61 42 40 59 50 39 35 32 28 37 32 23 24 23 21 23 23 27 26 26 32 39 55 76 83 83 94 98 97 90 94 99 100 100 100 99 99 99 100 100 100
94 83 85 86 62 71 57 34 31 32 29 28 22 22 20 19 18 18 22 28 30 37 47 75 89 97 99 99 100 100 100 100 100 100 99 98 99 100 100 100 100 100 100 100
89 88 96 98 86 57 48 39 31 34 32 27 24 21 20 20 28 29 30 30 40 45 56 85 91 96 100 100 100 100 100 100 100 100 100 100 100 100 100 100 100 100 100 97
78 77 89 99 100 88 51 38 32 25 42 26 25 25 24 29 42 37 37 50 59 73 85 93 96 99 99 100 100 100 100 100 100 100 99 99 100 99 100 100 100 100 98 92
93 91 97 100 99 86 57 48 31 48 51 29 26 23 25 31 40 35 56 57 68 85 92 93 94 97 100 98 96 100 100 100 99 99 99 100 100 99 99 99 98 92 77 71
99 92 97 94 99 95 46 47 44 46 40 38 30 29 27 38 53 61 61 65 76 92 94 94 96 97 94 92 90 96 96 96 96 96 96 95 90 84 87 81 75 74 73 69
86 76 86 74 74 54 54 56 52 52 50 42 45 36 44 58 55 60 62 67 76 85 90 93 94 93 88 86 86 88 88 88 85 74 69 71 70 73 77 77 78 82 77 72
59 61 70 67 52 53 52 54 49 41 41 38 36 44 51 52 59 61 63 69 74 75 81 87 87 86 80 78 75 74 73 67 65 61 60 62 65 62 66 69 72 75 73 68
43 57 61 58 49 44 43 44 38 36 38 38 38 40 53 56 59 62 65 69 72 71 68 69 67 66 67 67 68 68 64 60 56 55 56 59 60 58 59 59 62 76 87 81
46 59 72 71 49 48 36 42 42 44 37 40 42 39 43 53 61 60 64 68 66 64 59 58 62 65 68 68 66 62 58 53 52 65 70 69 63 67 74 76 76 60 53 57

GFSCGP_925_rhum_087.txt.gz
RH
34 41 43 40 39 33 34 38 41 34 28 33 34 41 34 50 61 93 93 90 94 92 92 95 100 99 99 100 100 98 99 94 81 77 83 82 79 76 68 72 72 65 57 67
34 46 32 33 34 36 38 42 42 35 28 31 35 36 29 59 62 78 92 97 92 84 92 91 99 100 100 100 100 98 94 91 88 85 74 75 83 68 63 54 52 46 51 62
34 32 29 34 37 38 38 42 42 40 31 30 29 35 30 45 60 75 89 89 88 88 92 85 91 98 100 100 100 99 95 86 84 81 67 66 76 73 69 54 59 62 60 61
31 23 26 36 36 36 43 34 34 36 39 42 29 49 36 37 64 74 81 95 94 88 85 79 84 89 94 95 99 97 93 90 86 84 77 74 71 68 70 63 59 58 58 56
33 28 27 30 36 33 37 32 36 38 38 38 36 46 41 56 66 70 71 82 89 92 89 89 93 96 99 98 100 98 97 92 90 83 76 73 70 65 60 58 57 54 53 55
28 22 25 23 24 30 29 32 33 43 44 55 47 50 53 47 48 52 58 61 71 88 89 89 89 88 100 99 100 97 92 90 87 80 74 69 69 64 60 59 65 61 56 62
29 32 25 23 30 27 34 38 56 59 57 62 56 69 54 36 33 38 51 55 59 74 87 90 91 90 96 100 100 98 96 93 88 82 74 69 67 67 67 64 64 65 60 54
22 33 31 23 26 32 36 37 62 57 73 57 60 66 46 35 30 32 43 44 52 69 76 81 82 84 89 94 95 96 94 91 90 87 80 74 74 72 72 68 65 61 58 48
47 41 26 22 22 23 32 40 32 50 67 78 62 52 40 34 32 24 45 50 56 68 71 71 72 77 85 88 88 88 86 86 84 86 83 79 76 78 81 72 71 74 73 74
35 43 31 25 24 26 27 32 45 60 73 80 64 57 52 38 25 24 41 53 53 60 67 65 65 71 77 81 84 84 82 80 78 79 80 80 79 77 79 84 87 87 85 85
60 43 37 28 33 34 36 32 40 42 63 54 70 59 43 41 35 23 23 45 54 54 61 65 64 62 69 74 78 79 78 74 71 74 78 82 85 88 91 94 92 87 90 89
66 50 46 34 27 25 27 29 35 54 58 64 66 53 30 36 31 28 24 25 41 52 51 56 61 61 63 69 74 73 73 71 69 71 74 78 85 89 95 96 97 95 96 94
83 85 62 43 35 27 31 32 35 48 59 68 69 59 31 32 34 29 28 28 25 43 52 52 54 61 61 63 68 74 75 70 70 72 75 74 76 88 92 95 97 95 96 100
77 95 86 55 42 35 38 32 33 43 62 56 56 46 34 32 35 29 26 28 26 29 40 50 54 53 55 58 63 68 70 76 76 78 77 77 74 80 84 91 99 100 100 96
86 98 74 52 31 29 36 37 36 39 42 49 42 46 35 34 32 29 29 27 24 26 29 41 45 50 52 53 56 63 68 70 74 76 75 75 76 86 89 91 94 100 97 90
83 99 93 60 46 30 30 30 38 43 41 38 36 37 32 30 32 30 26 25 28 26 28 30 37 43 52 56 56 58 64 69 74 80 82 82 84 88 98 100 100 100 99 99
97 99 92 74 46 47 59 47 36 33 36 33 42 39 30 33 31 30 29 27 29 29 28 28 31 39 42 60 62 67 71 74 76 82 90 99 99 100 100 99 99 100 100 100
86 98 100 95 62 78 46 38 36 40 32 35 31 26 27 25 26 25 23 25 29 30 30 56 79 89 98 98 94 98 98 100 100 100 100 100 100 100 100 100 100 100 100 100
73 86 99 99 81 64 52 47 44 47 45 34 32 26 22 22 27 26 30 29 29 39 53 79 86 99 97 100 100 100 100 100 100 100 100 100 100 100 100 100 100 100 100 100
74 76 89 99 98 87 56 41 38 44 62 33 29 34 28 29 39 34 33 42 49 75 89 97 100 100 99 99 99 98 100 100 100 100 100 100 100 100 100 100 100 100 100 99
100 99 97 98 99 86 64 54 48 86 69 42 29 32 34 32 37 33 57 62 82 94 99 99 98 99 100 99 98 99 100 100 100 100 100 100 100 100 100 100 100 99 100 99
93 99 99 99 98 93 46 58 52 53 59 44 35 30 34 31 41 57 62 82 94 98 98 98 100 100 100 99 98 100 99 100 100 99 99 98 94 97 99 98 97 94 88 90
88 72 89 81 79 58 50 49 46 53 50 45 50 39 37 44 54 66 78 92 95 97 98 97 99 100 96 93 91 95 97 95 86 78 76 78 83 84 87 87 86 82 84 91
61 61 81 75 56 58 53 52 57 57 42 40 42 52 52 56 64 70 78 90 95 97 98 97 87 81 84 86 85 79 74 74 73 74 74 76 80 84 87 89 89 87 90 93
54 69 70 66 55 49 42 47 52 48 44 42 43 42 51 61 67 70 85 88 86 78 72 72 71 70 70 70 68 68 66 67 68 72 76 76 75 79 85 92 95 97 99 98
50 52 70 60 45 47 47 36 45 52 49 48 43 44 50 55 67 72 80 74 66 67 68 70 72 74 74 72 68 64 64 64 70 84 90 91 91 94 97 98 97 97 97 96

GFSCGP_925_rhum_090.txt.gz
RH
37 46 51 40 44 37 37 42 44 40 30 30 35 37 32 40 63 78 98 92 90 98 79 95 99 100 100 100 99 99 100 100 97 92 93 92 91 80 74 65 61 58 68 72
42 46 34 36 40 40 39 42 44 39 30 34 35 36 31 42 55 60 81 98 97 98 93 92 100 100 100 100 100 99 99 100 91 92 91 92 87 87 82 61 44 44 44 56
37 33 33 37 42 42 43 43 42 41 33 34 36 40 33 35 59 69 85 92 92 95 96 80 96 100 100 100 100 100 100 98 91 88 86 90 86 84 82 80 65 66 66 62
36 27 28 38 40 39 47 38 36 38 44 53 33 57 38 30 49 71 82 94 94 92 93 84 78 98 100 100 100 100 94 94 87 84 82 84 82 77 61 59 67 74 74 72
38 30 32 32 40 37 41 35 42 42 48 45 41 54 45 48 44 47 66 83 91 90 91 90 79 83 98 98 99 99 98 92 85 81 75 71 79 74 65 58 59 61 64 68
30 24 27 27 25 36 34 38 37 44 52 68 49 50 52 41 44 41 50 71 80 93 92 89 85 85 86 90 96 94 98 94 87 83 78 68 64 71 67 63 66 63 56 57
21 26 28 24 28 34 37 44 60 62 67 70 49 69 51 35 35 39 37 57 70 79 93 94 97 96 95 96 96 99 100 100 96 88 81 75 68 65 63 62 63 69 64 57
22 20 22 28 29 35 40 44 68 62 66 54 65 75 52 38 36 37 35 43 63 75 82 90 93 94 97 97 98 98 99 100 99 95 90 83 77 74 70 68 68 67 65 60
47 29 24 23 23 24 35 48 37 47 63 75 64 56 39 34 29 32 31 55 64 71 78 80 86 88 92 98 100 100 100 100 95 94 90 86 81 77 75 71 69 70 64 64
62 61 34 28 26 25 26 31 41 63 71 77 65 61 48 33 33 30 29 56 59 70 75 73 77 82 85 92 96 99 96 91 89 88 87 86 81 76 73 73 73 74 71 67
79 65 48 35 35 35 37 36 42 43 61 59 62 60 48 36 33 34 28 37 58 65 73 70 67 68 76 85 92 95 94 89 86 83 80 79 77 73 71 70 70 72 71 66
87 96 77 48 31 28 28 33 33 45 53 70 61 44 31 36 34 36 29 26 41 60 64 71 70 68 71 82 88 91 92 87 82 76 75 78 78 77 77 75 72 77 73 68
63 97 91 60 38 33 35 33 34 47 56 47 62 52 33 37 33 29 34 29 32 51 63 63 73 71 69 73 79 83 84 84 80 78 74 75 75 83 79 78 79 78 80 86
63 81 84 93 85 72 68 37 33 42 66 50 50 44 36 32 33 30 32 32 29 28 50 63 66 70 68 67 73 77 77 74 75 73 70 74 76 77 82 86 91 95 98 100
75 89 69 76 75 83 89 52 33 36 42 52 44 47 39 36 34 32 32 30 29 25 32 52 64 63 67 68 68 72 76 78 75 74 74 70 74 81 84 86 89 91 98 100
90 88 84 87 70 74 76 46 39 43 41 44 44 45 37 34 33 31 31 29 29 30 27 29 42 56 64 63 66 69 72 77 81 81 78 77 76 78 81 83 85 91 100 100
88 99 96 87 78 88 78 47 36 35 44 43 48 40 32 32 35 36 31 33 29 28 29 31 32 42 51 58 60 64 69 74 77 84 85 85 83 82 85 92 100 99 99 99
72 98 100 98 90 97 60 39 33 38 36 40 36 33 34 32 29 31 32 30 32 30 32 32 49 84 97 98 89 89 91 88 88 94 99 99 100 100 100 100 100 100 100 100
61 77 98 98 97 87 72 49 44 48 42 41 40 39 34 30 27 30 31 29 27 31 46 82 94 98 98 99 99 99 99 99 100 100 100 99 100 100 100 100 100 100 100 100
66 70 91 99 99 86 69 59 55 42 68 41 41 43 38 33 38 34 30 42 65 85 92 98 98 97 97 97 96 99 100 100 100 100 100 100 100 100 100 100 100 100 100 100
95 90 94 91 96 88 68 66 63 73 67 41 47 41 37 32 34 32 57 88 96 98 97 98 98 97 99 96 98 100 100 100 100 100 100 100 100 100 100 100 100 100 100 100
91 98 98 98 98 92 55 75 95 61 67 53 50 50 41 36 39 51 82 97 98 97 98 98 97 99 100 100 99 100 99 100 98 95 95 97 98 99 99 98 99 99 99 99
83 84 84 91 85 59 48 47 51 63 61 61 52 53 53 45 42 66 95 98 98 97 96 98 97 99 100 99 98 96 85 91 88 87 90 91 93 95 95 94 95 96 97 99
59 60 76 77 56 56 54 51 53 53 55 60 49 57 56 58 70 91 98 97 96 93 88 86 88 86 82 79 79 80 80 81 81 86 90 92 94 97 97 97 99 100 100 100
64 60 65 72 57 50 44 39 43 50 54 52 57 52 59 68 82 89 95 83 76 73 73 74 74 72 72 72 73 75 77 78 83 85 90 95 97 98 99 99 99 98 99 99
59 55 72 70 53 56 53 49 49 53 61 72 64 51 65 74 84 74 72 69 72 74 76 80 81 85 87 87 86 81 80 78 83 97 100 100 100 100 98 98 98 97 97 97

GFSCGP_925_rhum_096.txt.gz
RH
14 26 31 22 23 21 18 20 20 15 17 22 19 14 13 13 14 16 20 27 33 39 41 52 67 81 99 100 100 100 100 100 100 95 100 100 100 100 100 100 100 98 92 78
25 21 14 18 20 23 23 24 20 17 16 20 18 16 14 14 14 15 17 22 29 36 46 53 65 79 95 94 98 99 99 99 100 100 98 99 100 100 100 100 95 96 93 77
33 20 17 15 24 28 25 24 22 22 18 19 21 20 13 12 16 18 23 22 25 31 43 51 64 83 92 96 90 98 99 98 100 95 94 98 98 99 99 96 96 92 87 86
29 19 20 22 22 21 28 19 22 22 22 26 20 22 13 15 16 15 14 23 28 32 40 45 54 70 92 90 86 92 93 99 100 99 98 93 95 90 92 99 88 79 79 77
31 28 27 25 25 22 26 22 20 25 25 24 23 26 18 15 21 17 14 14 28 34 39 44 47 61 84 88 90 95 92 100 100 99 99 96 92 83 89 87 82 85 69 73
26 18 24 25 20 23 23 29 29 30 30 39 30 24 18 16 19 16 15 19 27 35 39 42 45 51 66 83 86 95 93 99 100 90 88 86 82 82 92 93 91 88 83 76
18 21 17 21 28 24 28 35 41 46 45 41 22 29 20 19 17 16 16 15 26 34 40 44 44 46 56 73 80 88 92 94 95 89 85 88 82 77 80 85 81 69 74 72
22 22 18 18 21 24 33 34 37 38 36 31 27 33 23 18 16 15 19 19 23 33 40 42 42 44 53 67 78 83 85 90 94 94 90 77 71 82 76 73 67 75 64 63
42 31 23 15 17 18 25 36 26 30 27 39 29 28 25 20 20 18 17 16 21 30 37 40 41 45 47 62 72 80 79 82 86 88 87 82 74 74 71 68 67 62 61 61
34 51 29 24 20 18 19 19 37 34 44 39 25 24 25 20 19 15 17 16 18 24 33 37 39 45 48 56 66 77 71 73 79 83 82 78 73 70 67 66 66 66 62 61
38 44 38 34 27 21 21 27 27 25 29 36 35 24 19 19 18 17 17 16 19 25 31 35 37 43 50 55 61 76 79 72 71 73 78 77 76 76 75 69 68 68 68 68
37 44 50 43 32 33 37 28 23 31 30 32 33 29 18 19 19 18 19 20 19 24 29 32 37 41 48 54 60 74 88 81 75 71 70 73 75 75 74 74 70 68 66 67
40 51 51 44 39 41 42 39 42 43 38 39 44 33 18 17 21 23 20 17 19 22 28 31 35 39 43 49 54 59 72 79 73 70 68 70 74 75 75 76 77 72 75 74
43 43 40 35 40 36 44 44 39 46 60 41 35 29 21 18 18 17 16 16 17 21 26 31 35 35 38 44 49 52 56 64 66 66 66 68 70 73 74 78 79 78 78 76
39 51 38 37 33 28 30 30 30 41 40 52 43 37 24 22 19 18 16 17 19 19 19 24 30 32 35 40 45 50 52 58 60 62 64 64 67 70 73 76 78 78 76 76
60 55 59 56 42 40 38 28 26 29 33 34 34 38 28 23 18 18 17 16 16 18 17 16 21 28 34 38 44 48 52 58 62 60 62 64 66 68 69 71 73 73 72 73
63 60 63 56 45 52 61 43 32 25 24 36 47 33 24 23 20 18 20 20 18 19 18 18 18 23 30 39 45 47 54 60 66 65 64 65 67 68 68 71 74 75 79 82
66 65 70 68 62 80 32 31 29 30 34 35 38 34 27 22 19 16 14 18 20 19 19 19 20 25 31 36 46 49 55 62 67 66 66 68 70 70 70 73 75 83 97 99
53 56 70 66 47 34 31 27 43 46 37 36 50 34 24 21 19 19 17 19 21 33 26 25 26 38 52 53 56 58 59 64 71 86 86 86 90 97 100 100 100 100 100 100
47 60 67 58 63 52 23 37 43 38 45 53 51 53 48 42 37 23 19 43 52 56 51 50 56 66 73 77 78 90 95 100 100 100 100 100 100 100 100 100 100 100 100 100
88 91 90 75 75 42 26 35 46 62 55 52 57 55 54 54 39 35 63 78 67 75 80 82 88 91 91 96 98 98 99 98 100 100 100 100 100 100 100 100 100 100 100 100
72 85 89 82 87 76 41 69 94 84 61 51 60 59 59 52 48 66 85 94 88 94 94 94 94 94 94 92 93 95 96 97 97 97 99 100 100 100 100 99 100 100 99 99
45 37 44 60 62 38 40 67 66 62 57 43 67 70 55 62 62 87 92 94 94 90 82 82 82 85 88 90 92 91 93 93 94 94 95 97 98 99 99 99 100 100 99 100
31 31 47 54 36 50 59 69 62 48 41 54 51 54 63 82 85 94 90 89 84 77 77 78 79 81 83 83 85 86 87 87 87 88 89 90 91 93 96 99 100 100 99 98
36 33 37 39 34 33 33 38 36 33 45 55 59 56 68 82 88 85 85 82 77 77 78 77 77 77 78 80 81 80 80 81 84 86 86 88 92 96 100 100 100 100 100 100
40 39 42 45 33 35 34 30 33 36 44 54 66 60 64 68 73 74 78 79 79 82 82 81 81 80 81 83 84 83 81 81 83 86 87 87 86 86 90 97 100 100 100 100

GFSCGP_925_rhum_099.txt.gz
RH
17 15 14 14 18 18 20 18 17 15 13 14 15 15 12 10 9 11 11 11 13 18 24 34 44 56 67 89 96 99 100 99 98 100 99 100 100 100 100 100 100 99 92 83
20 18 13 10 12 20 22 22 21 17 14 15 17 17 14 11 10 9 11 11 12 15 26 36 47 56 73 84 90 98 99 100 99 97 99 99 100 100 99 100 100 98 96 80
24 19 15 18 18 16 21 25 24 22 17 14 16 19 17 13 10 9 9 12 12 14 24 36 44 53 68 79 86 94 99 98 99 94 94 99 100 100 100 100 100 100 98 84
17 15 20 19 20 14 19 18 20 21 21 24 16 24 16 12 9 9 12 13 14 14 18 30 40 50 62 75 82 80 90 94 100 97 93 99 96 98 100 100 100 100 95 88
19 21 24 23 20 20 18 15 19 19 22 23 22 22 18 14 14 10 11 11 11 15 20 29 36 44 57 68 78 83 89 93 99 98 97 96 100 99 98 99 99 100 98 92
13 12 23 23 20 19 18 20 21 23 23 33 24 24 20 16 13 14 12 11 13 16 22 27 34 40 53 70 77 80 89 90 100 99 97 94 93 98 99 99 100 100 100 97
19 15 12 18 23 21 22 26 39 37 39 40 22 24 22 14 11 13 12 13 16 19 24 30 34 38 48 68 77 81 83 90 97 97 96 94 92 90 95 95 91 89 92 99
24 21 14 13 19 21 26 29 43 41 36 36 22 25 19 14 12 12 13 14 14 19 25 30 32 35 41 59 68 76 78 81 89 90 88 87 83 80 80 82 89 83 79 83
33 28 18 12 14 18 18 33 23 35 32 43 41 24 17 18 17 14 13 13 14 19 24 28 30 35 38 51 59 67 69 71 82 84 78 80 77 69 70 79 79 79 76 76
34 41 22 18 14 17 21 15 30 29 49 43 25 23 25 20 19 15 14 14 13 14 22 26 28 35 37 46 55 63 60 62 70 80 80 75 69 72 69 70 67 73 72 64
21 38 30 26 28 21 22 25 23 21 24 36 41 31 19 15 18 17 14 15 13 15 20 25 27 32 37 43 49 61 58 56 63 68 75 76 71 67 68 66 68 67 64 62
21 38 47 32 21 24 28 19 21 35 32 25 31 31 17 16 16 18 18 15 16 16 18 22 26 30 35 41 45 55 57 52 55 62 68 72 72 69 65 66 65 65 66 63
39 32 39 33 25 24 34 28 24 22 24 27 38 32 15 15 16 16 19 16 15 17 22 24 26 29 34 39 44 47 56 54 53 55 59 63 68 68 67 68 69 67 67 66
42 38 34 35 33 45 39 36 34 34 45 36 28 21 16 16 16 16 16 15 15 17 18 22 26 28 31 36 42 45 54 58 55 55 57 58 61 64 65 66 67 69 67 66
40 50 31 25 22 22 29 27 26 29 30 41 34 28 23 20 18 16 16 15 16 15 16 20 24 26 29 33 38 43 48 58 58 56 56 56 60 63 64 66 68 70 71 68
28 54 37 33 25 24 28 22 20 19 21 23 25 26 18 18 18 20 19 16 15 14 13 14 18 22 26 29 34 39 43 50 56 55 56 56 59 62 64 66 69 70 70 69
79 55 46 56 28 26 39 26 20 16 12 15 24 22 18 22 20 19 19 17 15 15 14 14 15 18 22 27 32 36 41 45 51 52 54 56 58 60 62 65 67 68 69 70
63 57 64 59 49 64 28 18 21 26 22 15 12 11 18 21 22 17 15 16 15 15 15 15 16 18 19 26 32 37 42 47 52 52 52 54 57 59 60 63 84 92 89 96
48 56 72 65 46 30 23 20 25 29 32 24 26 29 39 34 26 21 14 14 14 18 23 21 23 19 23 26 33 39 42 49 55 55 55 57 59 85 100 100 100 100 100 100
43 52 67 63 60 52 24 34 44 38 60 46 46 53 53 46 53 28 22 17 33 34 34 32 37 41 43 40 41 42 51 76 98 100 100 100 100 100 100 100 100 100 100 100
64 85 77 68 70 46 24 20 34 62 71 58 50 44 49 59 59 50 48 51 48 49 53 58 56 59 77 83 91 97 98 98 100 100 100 100 100 100 100 100 100 100 100 100
81 89 81 65 89 79 27 33 57 72 64 57 44 41 49 60 66 64 70 72 71 76 77 75 80 90 93 93 94 93 94 97 99 99 99 100 100 100 100 100 100 100 100 100
74 47 62 58 50 32 28 50 56 67 74 62 50 48 59 73 71 78 87 89 84 76 79 83 84 87 89 90 91 92 96 96 96 95 95 96 97 97 98 98 98 98 97 98
38 28 37 39 33 32 32 43 43 62 61 56 43 45 64 87 79 84 85 84 82 78 80 82 82 84 87 88 89 90 90 88 87 87 89 90 90 92 95 98 97 94 92 94
38 43 46 40 31 30 27 32 48 54 36 32 43 65 68 86 83 79 83 79 78 79 81 80 84 83 84 83 84 84 84 83 84 85 86 89 94 99 99 99 100 100 100 99
34 38 44 45 35 38 33 28 29 32 34 39 50 67 71 64 75 80 89 90 87 87 88 82 84 80 79 79 78 78 76 78 78 80 83 88 90 93 95 98 100 100 100 100